sat.trackr.live / text

‹ back to catalog

STARLINK-34210

NORAD 65653 · 2025-211B

PAYLOAD ACTIVE UNKNOWN

§ Identity

Operator
Country
US
Launch date
2025-09-19
Launch site
AFWTR
Launch vehicle
Mass (kg)
RCS (m²)

Purposes: comms

External: N2YO · Heavens-Above · Gunter

§ Orbital elements

Epoch: 2026-09-20T13:40:56.608896Z

Period
93.91 min
Inclination
97.2848°
Eccentricity
0.0000985
Mean motion
15.33461662 rev/d
Perigee alt
464.8 km
Apogee alt
466.2 km
Semi-major
6,843.6 km
B*
4.5915e-4
RAAN
303.7901°
Arg perigee
203.8182°
Mean anomaly
156.3015°
Rev number
5,653

§ Raw data

STARLINK-342101 65653U 25211B   26263.57009964  .00014785  00000+0  45915-3 0  99962 65653  97.2848 303.7901 0000985 203.8182 156.3015 15.33461662 56531

JSON: /api/v1/satellites/65653 · /tle

For live sub-satellite position, see the globe view (requires WebGL).

§ Visibility from observer

Set your observer location to see the next 7 days of passes ≥ 10°. The values pass through the URL so the page stays shareable.

No JS? Fill the form by hand. The geolocation button needs JavaScript.